Regional Weather Roundup
Issued by NWS

Home | Current Version | Previous Version | Graphics & Text | Print | Product List | Glossary On
Versions: 1 2 3 4 5 6 7 8 9 10 11 12 13 14 15 16 17 18 19 20 21 22 23 24 25 26 27
000
ASUS45 KCYS 210810
RWRWY

WYOMING REGIONAL WEATHER ROUNDUP
NATIONAL WEATHER SERVICE CHEYENNE WY
100 AM MST SUN JAN 21 2018

NOTE:  "FAIR" INDICATES FEW OR NO CLOUDS BELOW 12,000 FEET
WITH NO SIGNIFICANT WEATHER AND/OR OBSTRUCTIONS TO VISIBILITY.

WYZ001-210900-
YELLOWSTONE NATIONAL PARK

CITY           SKY/WX    TMP DP  RH WIND       PRES   REMARKS
LK YELLOWSTONE   N/A     -7 -11  83 CALM      29.94R
W YELLOWSTONE  NOT AVBL

$$
WYZ002>013-054>058-071-098>099-210900-
NORTHERN WYOMING

CITY           SKY/WX    TMP DP  RH WIND       PRES   REMARKS
JACKSON        CLOUDY    16   8  71 N8        29.92R WCI   5
CODY           FAIR      23  20  88 SW6       29.98R WCI  16
GREYBULL       MOCLDY    23  20  88 W3        29.97F
WORLAND        CLOUDY    24  22  91 S7        29.97S WCI  16
SHERIDAN       MOCLDY    25  19  78 CALM      29.97F
BUFFALO        CLOUDY    27  12  53 NW6       29.93F WCI  20
GILLETTE       CLOUDY    26  21  81 W5        29.95S WCI  20
HULETT         CLOUDY    28  27  93 SW6       29.97R WCI  22
NEWCASTLE      LGT SNOW  27  27 100 NW7       29.97R WCI  19

$$
WYZ014>020-022>026-101>103-210900-
CENTRAL WYOMING

CITY           SKY/WX    TMP DP  RH WIND       PRES   REMARKS
BIG PINEY      FLURRIES  20  16  84 VRB3      29.84S
PINEDALE       CLOUDY    19  16  86 NW15      29.84R WCI   5
DUBOIS         LGT SNOW  19  16  86 S5        29.86S WCI  13
LANDER         LGT SNOW  22  21  96 NW6       29.93R VSB 1   WCI  14
RIVERTON       LGT SNOW  23  20  88 N5        29.93S FOG     WCI  17
CASPER         LGT SNOW  22  20  92 NE18      29.90F FOG     WCI   7
DOUGLAS        SNOW      25  25 100 N8        29.91F VSB 1/2 WCI  16

$$
WYZ021-027>030-104>119-210900-
SOUTHERN WYOMING

CITY           SKY/WX    TMP DP  RH WIND       PRES   REMARKS
EVANSTON       CLOUDY    16  13  88 NW8       29.87S WCI   5
FORT BRIDGER   LGT SNOW  19  19 100 W10       29.88S WCI   7
ROCK SPRINGS   CLOUDY    20  14  77 NE15      29.84S WCI   6
DIXON            N/A     23  20  91 SW6       29.76R WCI  15
RAWLINS        CLOUDY    20  15  81 NE20      29.77S WCI   4
LARAMIE        LGT SNOW  20  20 100 E10       29.73F VSB 1   WCI   9
CHEYENNE       CLOUDY    24  24 100 NE7       29.79S FOG     WCI  16
TORRINGTON     LGT SNOW  29  28  96 NE14      29.87F FOG     WCI  18

$$




USA.gov is the U.S. government's official web portal to all federal, state and local government web resources and services.